{"data":{"norad_id":57249,"intl_designator":"2023-094AH","name":"STARLINK-5517","alt_names":[],"object_type":"PAYLOAD","status":"ACTIVE","operator":null,"country":"US","launch_date":"2023-07-07","launch_site_code":"AFWTR","launch_vehicle":null,"mission":null,"orbit_class":"UNKNOWN","rcs_meters":null,"size_class":null,"mass_kg":null,"dimensions":null,"purposes":["comms"],"wikipedia_slug":null,"has_3d_model":false,"image_url":null,"decayed_at":null,"tle_current":{"epoch":"2026-09-20T06:49:25.201344Z","epoch_age_seconds":142928,"freshness":"FRESH","line1":"1 57249U 23094AH  26263.28431946  .00000592  00000+0  31044-4 0  9992","line2":"2 57249  43.0054   0.6114 0001376 264.2866  95.7829 15.27574769177006","mean_motion":15.27574769,"eccentricity":0.0001376,"inclination_deg":43.0054,"raan_deg":0.6114,"arg_perigee_deg":264.2866,"mean_anomaly_deg":95.7829,"bstar":3.1044e-5,"rev_number":17700,"period_min":94.267071519037,"perigee_km":482.12065821808,"apogee_km":484.00886094231,"semimajor_km":6861.2017595802,"source":"CELESTRAK","updated_at":"2026-09-21T09:00:33.590723Z"}}}